RH
28 27 27 31 33 34 33 35 35 31 30 30 28 27 27 25 23 28 36 39 38 35 27 24 24 20 17 15 13 17 24 25 24 23 23 22 22 22 23 23 24 23 21 21 23 25 27 30 31 32 32 32 34 35 34 33 34 34 33 32 33 36 37 38 37 36 37 39 39 38 36 34 32 31 32 34 36 38 39 41 42 41 42 43 44 45
29 29 33 37 33 34 34 34 36 34 31 27 26 24 20 21 21 24 35 36 35 33 21 16 19 19 17 13 10 12 21 26 23 23 23 22 23 22 22 23 24 23 22 23 27 30 31 32 33 35 35 33 32 33 34 33 34 34 34 33 32 33 33 35 35 35 36 37 38 38 36 35 33 33 33 32 33 35 38 41 45 45 44 45 46 46
26 31 33 32 30 33 34 34 34 34 32 24 20 18 13 16 15 18 35 37 31 29 19 15 20 19 15 12 9 9 18 24 22 22 22 21 22 22 22 23 23 23 23 26 29 30 30 32 35 36 36 35 32 31 31 32 33 33 34 34 33 32 32 33 34 35 36 36 37 38 38 36 35 35 34 34 35 37 39 41 44 46 46 47 48 48
24 29 29 29 33 33 29 29 31 30 27 19 14 11 9 15 13 13 30 36 29 27 22 23 27 21 15 14 11 8 14 21 21 21 21 21 21 21 21 21 22 23 24 26 24 23 26 31 35 36 35 34 33 32 31 31 33 33 35 36 36 36 34 35 37 38 39 37 38 40 41 40 39 39 38 39 39 40 41 42 43 44 46 49 50 51
31 31 29 33 35 32 28 27 28 25 19 16 16 12 10 16 17 13 20 24 21 28 36 33 25 17 14 15 12 10 15 20 21 22 23 23 22 20 21 21 21 22 23 24 21 19 22 27 32 35 36 36 35 36 34 33 33 33 36 38 39 39 39 39 40 41 43 43 44 44 44 45 44 44 43 43 41 40 40 41 42 43 45 48 51 52
32 29 31 37 34 32 33 28 26 23 13 12 17 18 15 15 19 17 19 20 15 21 38 34 16 9 9 9 10 16 22 23 23 26 26 25 25 25 25 23 22 23 23 23 20 19 21 24 29 33 36 38 38 37 37 37 35 35 37 39 42 43 43 44 45 46 47 48 48 46 45 44 43 41 40 40 39 39 40 40 41 41 43 46 49 52
25 26 31 34 32 33 32 25 25 23 12 11 19 24 22 18 21 23 23 24 14 12 29 32 17 11 11 6 7 18 24 20 21 27 27 25 26 27 27 26 25 25 24 25 23 21 22 25 29 32 36 39 37 36 37 38 39 40 41 43 45 47 47 48 49 52 53 51 48 47 46 44 43 42 40 40 40 41 42 43 44 44 45 46 47 48
27 25 25 28 29 27 22 18 23 23 13 15 25 28 25 23 26 29 27 21 14 12 22 29 24 19 16 10 9 17 19 17 20 24 25 24 24 24 26 26 25 25 24 26 27 25 25 29 31 33 36 38 37 39 40 41 42 44 45 48 50 50 50 52 54 57 58 55 52 51 50 49 48 47 45 45 46 47 48 49 49 49 49 49 48 46
32 24 21 25 22 17 17 19 25 27 20 23 32 31 29 31 31 32 28 17 16 19 18 22 26 22 16 10 11 17 15 12 15 18 21 22 22 23 24 25 25 24 23 24 27 28 28 31 32 34 37 39 42 45 46 45 45 47 50 53 55 55 55 58 61 62 62 60 58 57 54 52 51 50 50 50 51 52 52 51 50 50 49 49 48 48
34 33 31 28 17 14 22 27 30 31 27 31 38 38 37 38 35 31 26 16 19 25 19 18 21 17 11 6 8 14 12 9 9 10 13 16 18 21 22 24 24 23 24 26 29 31 31 34 36 39 43 47 51 52 51 51 51 54 57 59 60 61 61 64 66 65 65 66 64 60 58 57 56 54 53 52 52 51 51 50 49 50 49 48 48 47
40 49 48 38 25 21 26 31 34 32 30 35 39 34 31 30 26 23 19 15 20 23 19 20 20 15 11 6 4 9 10 7 6 5 9 12 15 19 21 23 23 25 31 34 34 36 38 41 44 48 52 56 58 58 57 57 57 59 63 64 64 66 67 69 70 69 68 68 64 60 59 59 58 56 55 53 51 50 50 49 49 49 49 48 48 48
43 46 44 42 36 28 26 31 37 35 33 35 29 19 15 14 14 14 13 16 20 18 16 18 19 16 14 8 3 6 8 6 5 5 8 15 18 20 25 27 28 32 39 41 41 45 49 51 53 55 58 60 61 62 63 63 63 64 66 65 64 65 65 64 64 64 63 62 60 58 57 56 55 55 54 52 50 50 49 49 49 48 47 47 47 46
32 30 33 41 41 34 25 20 28 34 32 28 17 11 12 10 11 13 13 15 15 14 15 15 15 14 11 8 5 5 6 7 8 7 7 11 16 22 30 33 35 39 42 45 49 55 57 58 58 59 60 61 62 63 64 64 64 63 61 58 56 55 54 52 51 50 48 48 49 48 46 45 47 49 49 49 49 49 48 49 48 47 46 46 45 46
18 25 30 32 32 35 28 11 12 22 21 19 12 8 11 11 13 16 13 13 13 13 13 11 13 14 9 7 6 5 5 6 9 12 12 10 14 23 32 37 41 44 46 51 57 61 62 61 61 62 62 62 62 61 61 60 58 56 53 51 49 47 45 43 42 40 38 37 39 38 37 36 37 38 40 41 41 43 45 47 48 48 48 47 46 46
10 18 23 22 21 31 31 15 14 16 12 13 11 7 10 13 15 16 14 16 18 14 11 11 15 15 11 8 8 8 9 8 9 14 17 15 19 28 35 42 48 48 50 56 61 63 63 63 63 63 62 61 59 58 57 55 52 48 45 43 42 41 41 39 38 36 33 33 35 35 34 33 33 34 35 34 34 37 40 43 45 46 47 48 48 49
8 11 26 34 29 28 26 23 25 20 10 10 10 9 11 11 11 13 16 19 22 20 16 16 16 12 8 8 9 11 12 11 11 15 18 20 26 34 39 46 51 53 56 61 63 63 62 62 63 62 61 58 56 54 52 50 46 41 38 39 38 38 39 38 36 34 32 33 33 34 33 33 34 36 35 34 35 39 41 43 44 44 45 48 51 52
10 12 32 39 31 29 28 29 32 24 14 11 10 11 13 13 10 12 17 19 23 26 20 16 16 12 9 9 10 11 11 11 12 15 18 20 26 34 40 46 53 58 61 63 64 62 61 62 62 60 58 55 52 50 47 44 41 37 36 37 37 36 37 36 34 34 34 34 33 34 35 35 37 38 38 38 40 44 46 48 49 49 50 53 55 56
12 13 29 32 29 38 39 35 34 31 23 13 10 14 15 16 14 12 18 22 23 26 20 15 17 16 14 13 11 11 11 12 14 16 19 20 25 34 40 47 55 60 61 61 60 60 60 60 58 56 53 50 48 45 43 41 39 37 36 35 36 36 36 36 35 35 36 35 35 37 38 39 40 42 43 44 46 48 48 50 52 53 55 58 59 60
13 10 22 29 30 38 41 34 29 31 30 19 15 18 17 19 19 14 19 23 23 25 21 18 20 19 19 18 15 14 13 13 14 18 23 26 30 37 42 49 57 60 60 59 58 59 59 57 54 52 49 47 45 43 42 41 38 37 37 36 37 37 37 37 37 38 38 38 40 41 41 43 45 47 47 48 49 50 50 51 53 54 55 58 61 61
14 8 14 28 30 29 32 28 22 26 32 27 21 19 17 19 19 17 21 21 21 23 22 24 26 21 17 16 16 17 15 12 13 19 26 31 37 42 46 53 59 61 60 58 57 57 55 52 50 48 46 45 44 42 41 39 36 36 39 40 40 40 40 40 40 40 40 40 43 44 44 47 50 51 53 52 50 52 54 55 56 57 58 61 63 64
15 8 8 24 31 24 22 22 18 19 26 28 26 26 25 23 19 19 23 22 21 21 21 25 27 18 11 11 13 14 15 13 15 21 29 34 39 43 45 51 56 56 56 54 52 51 49 48 47 46 46 45 42 40 38 36 35 37 40 42 42 41 42 42 42 42 42 43 46 48 48 51 53 53 56 56 54 58 61 60 63 65 66 69 68 66
15 11 8 16 23 18 16 24 24 20 22 23 23 25 26 25 22 21 25 27 26 26 25 27 28 21 13 11 11 10 10 13 16 23 30 34 36 39 41 43 46 48 48 48 46 46 45 45 44 45 44 41 39 38 36 35 36 37 39 42 43 42 43 44 45 45 46 46 49 51 51 52 53 52 55 58 59 63 67 69 76 78 73 74 76 71
20 15 14 13 13 13 18 27 31 28 26 24 21 18 18 24 24 19 23 27 28 33 34 31 30 25 16 12 11 9 9 12 17 21 25 27 29 32 33 35 39 40 41 42 41 41 43 43 42 42 41 39 38 38 36 36 37 37 37 40 43 44 44 46 48 49 50 51 51 53 52 51 51 50 52 55 56 64 72 78 87 89 79 79 85 81
23 16 17 17 12 14 22 26 27 29 27 22 21 19 17 23 29 27 26 25 24 31 31 26 27 24 18 16 13 12 14 15 17 18 18 20 23 25 27 30 33 35 36 37 38 38 40 40 39 40 39 38 38 37 37 37 37 38 38 38 42 46 48 49 51 53 54 54 53 52 49 48 50 49 49 50 54 65 74 74 82 90 88 87 90 88
21 16 14 19 16 15 20 21 23 28 26 18 17 17 18 33 48 43 32 27 27 29 25 23 25 21 21 24 18 15 17 14 14 16 15 17 19 21 23 25 28 31 32 34 36 36 37 37 37 38 38 38 37 36 37 38 38 39 40 38 39 44 50 53 53 55 55 54 53 53 50 48 51 51 49 49 56 67 70 67 72 80 82 84 84 81
21 18 14 19 22 20 21 19 18 21 22 18 17 20 25 43 57 41 24 27 32 30 26 26 25 19 19 24 19 16 17 15 14 15 15 16 16 18 21 23 25 28 29 33 35 35 36 36 36 37 37 38 37 37 37 38 39 40 41 40 37 40 49 55 55 56 55 53 52 54 53 52 53 53 51 54 63 67 63 60 64 69 71 73 73 70
25 25 21 18 18 19 19 17 15 15 16 16 22 34 40 47 53 39 24 26 29 28 30 29 30 29 24 20 18 17 16 16 15 15 16 16 16 16 19 21 25 26 27 31 34 35 36 35 36 36 37 38 37 37 38 38 40 41 41 40 38 39 47 54 57 59 58 54 53 57 58 53 51 52 56 61 63 58 52 54 60 64 63 62 62 62
31 33 32 27 23 20 16 15 16 17 17 15 22 38 46 50 57 53 39 29 24 26 30 27 29 35 30 19 17 17 14 14 14 13 14 15 14 16 18 20 24 25 26 31 34 35 36 36 36 36 36 37 38 39 40 39 40 41 41 40 39 41 47 54 60 65 64 59 57 60 59 53 52 57 60 58 52 46 50 57 60 59 57 56 57 58
33 33 39 42 37 26 19 18 18 17 18 18 19 26 33 45 62 66 50 33 28 29 28 21 22 27 24 17 16 15 14 14 14 13 13 13 13 15 17 19 23 24 26 30 33 35 36 35 35 36 36 38 39 40 41 40 41 42 42 40 39 43 50 56 64 69 69 66 63 60 56 55 58 61 58 52 50 52 58 61 58 56 56 57 56 57
31 36 52 59 49 34 27 25 22 21 22 23 25 23 23 32 48 57 47 31 27 30 25 20 22 23 19 17 16 16 16 17 17 16 15 14 15 15 15 17 20 23 26 30 33 35 35 35 35 35 37 38 40 42 42 41 42 42 43 42 42 45 50 58 67 70 70 70 67 62 60 61 62 60 56 56 60 62 62 60 58 59 61 60 59 60
32 44 63 61 49 40 33 26 25 27 25 26 27 24 23 25 32 41 42 34 33 35 28 25 31 31 24 20 21 20 19 20 19 18 18 17 17 17 16 17 18 22 26 29 32 34 34 35 35 35 37 39 41 44 44 42 42 43 43 44 47 49 50 58 68 70 69 71 69 67 68 66 63 62 62 65 65 63 62 62 62 63 63 64 65 65
40 41 46 44 42 38 28 23 26 25 25 31 32 27 26 27 29 34 37 37 39 43 44 43 45 40 28 21 21 19 18 18 17 17 18 17 16 18 19 19 19 21 23 26 31 35 36 37 37 36 38 40 43 46 46 43 43 44 44 46 51 53 53 61 71 71 70 73 74 72 71 68 68 70 69 68 67 65 66 66 65 64 64 65 67 68
50 43 36 35 41 36 25 24 27 26 31 36 33 30 27 24 26 29 29 31 32 37 46 49 42 33 23 19 19 17 16 17 16 16 17 17 17 18 19 21 21 22 22 24 30 36 38 37 37 38 39 41 44 48 48 45 44 46 47 49 54 58 60 68 75 73 73 75 74 72 70 70 72 72 71 70 70 69 70 70 68 66 66 68 69 67
60 53 40 34 37 37 31 28 31 39 45 34 21 22 22 18 21 25 25 25 25 27 33 34 28 22 19 18 18 18 18 17 16 16 16 17 18 18 19 21 22 24 25 26 32 37 39 38 39 40 41 43 47 50 49 47 47 49 50 52 59 66 69 73 75 72 70 71 70 70 72 74 74 73 73 74 73 73 74 74 72 69 67 68 68 65
66 60 46 37 39 41 37 39 49 52 42 27 18 19 19 17 19 22 22 21 21 22 24 24 23 21 19 18 18 18 17 16 16 17 17 18 18 18 20 21 22 25 28 31 35 39 39 39 41 42 43 47 51 52 50 49 51 53 54 57 66 74 76 75 73 69 67 66 67 71 75 76 76 76 77 77 76 76 78 78 77 71 67 68 69 69
62 59 47 39 44 46 42 48 53 43 26 20 21 20 20 21 21 23 28 26 21 22 22 20 20 19 18 18 17 17 18 18 19 20 19 20 20 20 21 22 21 24 28 33 38 40 41 42 43 44 47 51 55 55 53 53 55 59 62 64 71 77 79 75 70 65 63 64 68 74 77 77 78 80 81 81 79 78 79 79 75 69 68 72 74 75
50 51 48 47 49 48 48 46 39 34 31 26 22 20 20 21 20 26 37 34 23 21 22 20 20 20 20 21 20 18 19 22 23 21 19 20 22 22 22 21 20 23 27 32 37 40 43 45 45 48 51 56 58 56 56 59 61 65 70 72 74 76 74 72 68 66 68 71 73 76 79 79 81 81 81 80 78 74 74 74 70 69 71 75 78 82
48 46 48 54 52 44 48 53 49 48 44 28 21 22 22 22 21 24 36 38 27 24 25 25 27 27 25 25 24 21 22 27 29 24 19 20 22 23 23 22 23 27 31 35 40 44 47 48 49 52 55 58 60 58 60 64 67 70 74 75 75 73 72 73 74 73 75 76 74 75 78 78 76 75 75 75 72 69 70 73 74 75 77 79 81 82
56 48 45 55 57 48 52 59 57 53 42 28 25 24 23 25 24 25 39 42 31 28 31 31 32 31 28 27 26 26 29 35 34 27 21 22 23 24 25 26 29 34 36 39 44 48 50 51 53 56 58 60 62 63 65 68 70 73 76 76 75 75 76 79 79 77 76 75 73 74 75 73 70 67 68 69 67 66 71 77 79 79 79 83 85 83
72 62 58 65 66 58 60 61 53 44 37 30 28 25 23 25 25 36 53 48 34 33 35 33 34 32 29 29 29 31 35 37 33 26 24 27 28 28 29 30 33 36 38 43 49 51 53 54 56 60 64 64 64 67 69 71 72 75 77 77 78 80 82 81 79 77 75 74 74 74 73 70 66 62 61 63 66 71 75 77 75 73 76 83 87 86
87 77 68 71 67 61 65 67 59 48 38 31 31 27 24 27 34 48 57 48 37 38 37 34 35 33 30 30 31 33 34 31 28 26 25 28 30 31 32 33 35 38 41 47 53 54 56 59 60 63 66 66 66 69 72 74 77 79 80 81 84 85 83 81 79 77 76 76 76 74 71 68 65 62 61 64 70 76 76 69 63 66 73 80 85 86
89 85 72 73 73 64 60 63 64 55 39 32 34 27 25 43 56 55 49 43 41 42 38 35 35 33 32 33 33 33 32 28 27 27 25 27 29 31 33 35 38 42 46 52 57 58 60 65 66 66 68 69 70 72 74 77 80 82 84 87 87 85 83 82 80 76 75 78 78 74 70 68 66 67 71 73 73 72 69 63 64 72 77 79 83 85
65 69 61 62 66 60 58 68 75 65 45 38 45 43 43 58 65 54 47 48 46 44 42 39 37 35 37 38 37 36 35 32 31 29 28 27 29 31 34 36 40 44 49 55 60 60 63 69 72 71 72 74 74 74 75 78 82 84 87 88 85 83 84 82 78 74 73 75 76 74 74 74 72 73 74 72 68 67 65 63 69 82 88 84 84 87
51 57 53 52 51 52 63 71 67 57 47 45 54 60 59 59 57 53 56 58 54 50 49 47 44 42 43 46 46 44 42 39 36 34 32 31 31 33 36 38 42 47 50 55 60 62 65 71 75 75 76 78 79 78 76 77 82 86 87 84 82 83 83 80 77 75 74 73 74 75 77 76 73 69 68 66 66 72 74 71 74 85 92 93 95 96
52 57 56 53 51 54 64 62 52 50 52 51 55 60 58 54 53 54 60 63 61 59 56 55 54 52 52 56 56 53 51 48 45 43 41 37 36 38 41 42 45 49 52 56 61 66 68 71 74 77 78 79 81 80 77 76 80 85 84 81 80 81 79 77 77 75 72 73 75 76 76 73 69 67 67 70 75 82 85 83 85 90 92 93 96 96
49 53 56 56 56 59 56 49 48 55 57 55 55 55 53 53 54 55 59 64 64 61 59 60 61 61 61 63 64 62 59 56 54 53 50 45 42 42 44 47 50 53 57 61 65 70 73 74 77 79 80 80 82 82 79 76 76 78 77 77 79 78 75 74 74 71 70 73 76 75 75 73 71 72 74 75 79 87 91 91 93 94 92 90 90 88
53 55 61 62 68 75 66 52 51 59 59 56 55 52 50 52 53 54 58 62 61 61 61 61 62 63 63 63 64 65 63 59 59 60 57 53 52 51 52 56 57 60 63 66 68 73 78 80 81 83 83 83 82 82 82 79 75 74 75 76 77 75 73 72 70 70 73 76 76 77 80 77 75 78 82 81 84 90 95 95 94 93 92 89 86 84
67 64 68 68 71 75 66 53 52 58 57 52 52 52 53 55 55 54 57 59 59 61 61 60 60 62 62 62 63 64 63 61 62 65 65 63 62 62 64 66 67 69 70 70 72 76 82 85 87 87 87 86 85 84 84 81 77 74 76 79 78 75 75 74 72 72 77 81 81 83 87 87 85 86 86 86 89 93 93 91 89 88 88 86 82 80
72 71 73 73 71 66 57 53 60 66 61 52 51 54 54 55 57 57 56 57 59 60 60 59 58 59 60 61 61 63 66 65 63 66 70 70 69 72 75 75 75 76 75 76 77 81 85 88 89 89 89 88 87 87 86 84 80 77 78 79 77 77 78 78 77 77 81 87 91 91 91 92 92 93 92 89 89 90 88 87 87 87 84 81 76 72
74 78 75 74 77 74 66 64 72 82 80 67 59 58 55 54 57 59 58 59 61 60 60 61 60 58 57 58 59 63 69 70 67 68 74 76 76 78 80 80 81 82 81 81 83 86 88 89 88 89 89 89 89 89 88 85 82 80 80 79 77 78 78 79 84 89 91 95 99 98 95 92 90 93 95 92 88 87 85 86 92 95 91 85 78 75
80 86 83 85 89 83 72 68 73 82 84 72 60 57 55 54 56 59 60 61 61 59 59 61 63 63 61 60 59 63 69 72 72 74 79 80 79 81 83 84 85 86 85 86 88 90 92 92 90 89 90 90 91 90 88 86 82 80 80 79 78 80 78 77 84 93 94 95 97 96 93 90 88 89 90 86 84 86 84 82 86 93 97 97 95 92
Wind_Speed
2 3 1 1 2 3 4 4 4 4 4 5 4 5 6 6 4 2 5 4 2 4 8 10 12 14 14 13 11 10 14 14 14 14 13 12 12 11 12 12 11 11 11 11 12 12 13 13 13 13 12 12 13 13 13 13 13 13 13 13 12 12 11 12 12 11 11 11 10 10 10 11 10 10 10 11 12 12 13 13 15 18 19 18 18 19
3 3 2 4 4 3 3 3 3 3 3 3 4 5 5 5 4 1 4 3 2 2 7 9 11 14 15 14 14 11 14 15 15 16 15 15 14 12 13 14 12 11 10 10 12 12 13 13 14 13 12 13 14 14 14 15 15 15 14 15 13 12 12 12 12 12 11 11 10 10 10 10 10 10 10 10 10 10 10 10 12 17 19 19 20 20
3 0 4 4 3 1 1 1 3 3 3 4 3 5 4 2 4 1 3 2 1 2 6 9 10 13 16 16 16 14 14 14 15 16 16 16 16 14 14 14 13 12 11 11 13 14 15 15 15 14 14 14 15 15 15 16 16 15 15 15 14 12 12 12 12 12 11 10 10 10 10 10 10 10 10 10 10 11 12 12 14 19 20 20 20 20
2 3 5 3 1 1 0 1 3 4 4 3 3 4 3 3 4 2 2 0 4 5 7 9 10 13 16 15 15 15 14 12 13 16 15 14 15 16 15 14 14 14 14 13 14 15 17 17 17 16 15 15 15 15 15 15 15 15 15 14 13 12 12 11 11 12 12 12 12 12 13 14 15 14 15 16 15 16 18 18 18 19 19 17 16 16
3 5 4 1 1 2 2 1 3 4 3 2 1 4 4 4 4 4 3 5 7 7 6 8 9 9 8 8 9 8 9 10 11 12 13 13 13 13 14 14 14 15 14 14 14 15 17 18 18 18 17 15 15 15 15 15 14 14 13 13 12 11 11 11 11 11 11 11 12 12 13 14 15 15 15 16 15 15 15 15 14 13 13 13 13 13
5 3 2 0 1 2 3 3 1 3 4 2 1 3 4 5 6 7 7 8 7 4 4 4 8 5 1 4 6 5 7 9 10 11 12 12 12 11 12 12 13 13 13 13 14 14 16 17 17 17 16 16 15 14 14 14 13 12 11 11 11 10 9 10 10 10 9 9 8 8 8 9 9 9 9 9 9 8 8 9 8 8 9 10 11 12
3 2 1 1 2 2 4 4 1 1 5 2 1 3 3 4 6 7 7 5 6 5 2 4 6 7 4 8 8 7 8 9 9 11 13 12 12 12 12 12 12 13 12 12 12 14 15 16 16 16 15 15 14 12 11 10 11 11 9 9 9 8 8 8 7 8 8 8 7 7 8 8 8 9 8 8 7 7 8 8 8 8 8 9 10 11
3 3 3 2 4 4 4 3 2 0 5 2 1 2 2 4 6 6 6 6 6 7 4 7 5 8 7 8 5 6 7 8 9 11 13 12 14 15 14 14 14 14 13 12 12 13 14 15 15 15 14 13 12 11 10 9 9 10 9 8 8 7 6 6 6 7 7 6 6 6 7 7 8 8 9 9 8 8 8 9 9 9 9 10 10 11
1 3 4 3 5 4 1 2 3 0 3 1 1 3 3 4 6 5 5 6 5 6 6 5 4 6 7 4 4 6 6 9 10 12 12 13 15 16 16 16 15 15 14 13 12 13 14 15 14 14 13 12 11 11 11 10 9 9 9 8 8 7 6 6 6 6 6 6 5 5 5 6 7 7 8 8 8 8 9 9 10 10 10 10 10 11
1 1 0 2 3 2 2 4 3 1 1 2 0 3 4 5 6 5 5 6 4 6 7 3 4 4 8 6 3 5 6 9 9 9 10 13 15 15 16 16 16 14 12 11 11 12 14 14 13 13 14 13 12 12 11 11 10 10 10 9 9 8 6 5 5 5 5 5 5 4 5 6 6 7 7 8 9 9 9 10 10 10 10 10 10 10
3 2 1 2 2 1 4 3 2 1 1 0 2 4 5 6 6 5 5 4 4 6 3 3 3 2 6 7 4 4 3 6 7 7 7 9 11 13 13 13 13 11 9 9 9 11 13 13 14 14 14 14 13 13 13 12 11 11 11 11 10 8 7 6 5 4 4 3 4 4 5 6 7 8 8 9 9 9 10 11 11 10 10 10 10 10
4 3 2 2 1 2 2 2 1 1 2 2 3 4 5 5 5 4 4 3 5 4 2 5 2 3 6 7 4 1 1 4 6 6 8 9 9 10 9 8 9 9 9 9 9 10 13 13 14 14 14 14 14 14 13 13 12 12 11 11 11 9 8 7 6 5 4 3 3 3 4 5 6 7 8 9 10 10 10 11 11 11 11 10 10 10
5 4 4 4 1 3 4 3 3 3 4 3 4 4 5 5 3 4 4 3 5 2 4 4 1 4 10 10 10 9 7 8 7 6 8 10 10 9 8 8 8 7 8 9 9 9 10 11 13 15 15 15 15 14 14 14 13 12 12 12 11 10 8 7 6 4 4 3 3 3 3 5 5 6 7 9 9 10 10 10 10 10 10 10 10 10
2 3 6 5 2 4 6 4 2 2 4 5 4 3 4 5 5 6 5 5 6 1 4 4 1 6 10 9 11 14 12 10 8 6 6 8 10 9 8 8 7 8 8 8 8 8 8 11 14 15 15 15 15 15 15 14 13 13 12 11 11 9 7 6 5 4 3 3 3 2 2 3 4 5 6 7 8 9 9 9 9 10 10 10 10 10
3 1 5 4 2 6 8 4 2 2 2 3 1 3 5 4 5 6 5 6 7 6 2 3 1 6 8 3 2 3 2 5 7 6 4 5 7 7 7 8 7 7 7 6 7 8 9 12 15 15 15 15 15 16 15 14 14 13 12 11 10 9 7 6 5 4 4 3 2 2 1 1 2 3 4 6 6 6 7 8 8 9 10 10 10 9
5 2 3 3 2 5 6 1 1 3 4 2 1 2 4 2 4 5 4 4 5 7 5 4 4 7 8 7 4 5 4 4 5 5 5 5 6 7 6 7 7 7 7 6 7 8 10 13 14 15 15 15 16 16 15 14 14 13 12 11 10 9 7 6 5 5 4 3 3 2 1 0 1 2 3 4 4 5 6 7 8 9 9 9 9 9
4 2 5 3 1 3 1 1 1 3 2 2 2 2 0 2 3 5 4 1 2 6 6 6 8 8 9 11 4 7 6 6 6 6 7 7 8 7 7 7 7 7 6 7 7 8 11 13 14 14 15 15 16 15 15 14 13 12 12 11 10 9 8 6 6 5 4 4 3 2 1 0 0 1 2 3 3 4 5 6 6 7 8 8 8 8
3 3 4 4 2 2 1 2 3 3 2 2 2 1 1 0 2 4 4 3 4 8 7 7 11 10 7 7 0 6 7 8 9 9 8 8 9 9 8 8 7 7 7 7 8 8 11 13 14 15 15 15 15 15 15 14 13 12 11 11 11 10 9 8 6 6 5 4 4 3 2 2 1 1 1 2 2 3 4 4 4 5 5 5 5 6
2 4 2 2 1 4 3 3 4 4 4 4 3 2 2 2 2 3 3 5 6 7 8 9 11 9 8 8 5 6 8 8 9 9 9 10 11 10 9 8 8 8 8 8 9 9 10 13 15 15 15 15 15 15 15 14 13 12 11 11 11 10 9 8 6 6 5 4 5 4 3 3 2 1 1 1 1 2 2 2 3 3 3 3 3 2
1 3 1 1 1 3 4 4 5 5 5 2 3 2 1 2 4 4 2 3 5 7 9 9 7 7 8 9 10 10 9 8 8 8 9 11 11 10 8 7 8 9 9 9 10 10 11 14 15 15 15 16 16 15 15 14 13 13 12 11 10 10 9 8 6 6 6 5 6 5 4 4 3 2 2 1 1 1 1 2 2 2 2 2 1 1
2 3 3 1 2 3 4 5 5 5 5 5 5 5 5 3 2 4 3 3 5 7 8 9 8 8 7 5 7 9 7 8 8 8 9 9 9 9 8 7 8 9 10 10 10 10 11 14 16 15 15 16 15 15 14 14 13 13 12 11 11 10 9 8 7 7 6 6 6 6 5 4 3 3 2 2 1 1 0 1 1 2 1 1 1 1
3 3 4 3 4 6 5 2 1 2 2 4 5 7 7 6 3 4 5 4 4 5 6 7 9 11 7 4 5 8 7 7 8 9 9 7 8 9 10 10 10 11 11 11 11 11 12 14 16 16 16 16 15 15 15 14 13 12 12 11 11 10 9 9 8 8 7 7 7 6 5 5 4 3 3 2 2 2 1 1 1 1 2 1 1 1
1 3 6 8 8 6 1 4 4 4 3 2 4 5 6 6 7 7 6 3 3 4 3 3 8 12 6 6 6 8 6 6 6 6 7 6 8 9 10 11 11 11 11 11 11 10 12 15 16 16 16 16 16 15 15 14 13 13 12 12 11 11 10 9 8 8 8 7 7 7 6 5 5 4 3 3 4 3 2 2 1 2 3 2 0 1
0 3 5 8 9 3 4 4 2 2 2 3 5 7 7 6 6 5 3 1 2 5 4 3 9 11 2 4 3 3 2 3 3 4 7 6 6 8 10 11 12 12 12 12 11 10 12 15 15 16 16 17 16 16 16 14 14 14 13 12 12 11 11 10 9 8 8 8 8 7 7 6 5 4 4 4 4 3 3 4 3 3 4 3 2 3
3 4 4 5 8 4 2 2 2 1 3 5 6 8 10 6 3 2 2 1 5 10 10 7 11 12 2 4 1 2 2 5 6 5 7 7 7 8 10 10 11 12 12 12 12 12 13 14 15 16 17 17 17 17 16 16 15 14 13 12 12 12 12 11 9 9 9 9 9 9 8 7 6 5 5 5 4 3 4 5 5 5 5 4 4 5
3 5 5 5 7 7 7 5 1 1 3 5 5 8 11 9 8 4 4 5 7 9 9 9 12 14 7 2 3 4 5 7 8 7 7 8 8 9 9 10 11 12 13 14 14 13 13 13 14 16 17 17 17 17 17 16 15 14 13 13 12 12 12 11 10 9 9 9 10 10 8 7 6 6 5 4 4 4 6 6 5 5 4 4 5 5
3 5 8 11 11 10 11 8 1 2 3 6 6 8 10 10 11 9 6 8 10 7 7 13 15 16 17 12 8 8 8 9 9 9 9 9 9 9 10 11 11 11 12 13 13 13 13 13 14 17 18 18 18 18 17 16 16 15 14 13 12 11 11 11 10 10 10 10 10 10 9 8 7 6 5 5 6 7 7 6 4 4 4 4 5 5
3 6 9 14 17 17 18 17 9 3 8 12 10 8 10 11 12 11 12 15 11 5 11 17 15 14 19 20 16 15 14 12 11 10 10 9 9 9 10 11 12 12 12 12 13 13 14 14 14 16 19 19 18 18 17 16 16 15 14 13 12 11 11 11 11 12 11 11 10 10 9 8 7 7 7 7 8 8 7 5 4 4 4 4 5 6
4 8 6 9 16 20 19 19 16 12 13 15 15 14 12 12 14 15 19 21 12 9 16 19 16 17 19 19 19 17 16 15 15 13 12 10 9 9 11 12 13 13 13 14 15 15 15 15 14 16 19 19 19 19 17 16 15 14 13 12 11 11 12 12 12 12 12 11 11 10 9 9 9 9 9 9 9 7 6 5 5 5 5 5 6 6
4 6 3 3 10 18 18 18 17 16 16 16 18 19 17 16 18 18 20 22 18 19 23 24 25 25 21 19 20 19 16 14 13 12 11 11 12 12 12 13 13 13 14 14 15 15 15 15 14 16 19 19 19 19 18 16 15 14 13 12 12 12 12 13 13 13 12 12 11 10 11 12 11 11 10 9 8 7 6 6 5 5 6 7 7 8
5 3 1 3 5 15 15 12 12 14 14 15 18 19 18 18 19 19 18 19 18 20 24 25 25 22 18 17 18 17 14 12 12 12 12 12 12 12 13 13 13 13 14 14 15 14 14 14 14 16 18 19 20 20 18 16 15 15 13 12 13 13 13 14 14 13 13 12 12 13 14 14 12 11 10 8 8 7 7 7 6 7 8 9 9 10
7 3 0 2 6 12 8 3 5 8 10 15 19 21 20 19 17 16 16 15 15 17 18 16 14 14 13 13 12 12 12 12 12 12 11 11 10 11 11 12 13 14 14 14 14 13 14 14 14 15 17 20 20 20 18 16 15 15 14 13 14 14 14 14 14 13 13 14 15 16 15 14 11 10 9 8 8 8 7 7 9 10 11 11 11 11
6 5 3 2 6 10 3 1 3 7 9 12 12 12 13 14 14 15 13 14 16 14 10 9 9 11 12 11 12 14 14 15 14 11 9 10 10 10 10 12 12 13 13 13 12 13 13 13 15 17 18 19 20 20 19 17 16 15 14 14 15 14 14 14 14 15 15 17 17 16 15 12 10 10 9 9 9 9 8 9 11 12 13 13 13 14
6 6 5 4 6 8 4 4 7 9 10 8 2 0 4 7 9 13 12 12 13 11 9 11 12 14 15 14 15 16 16 16 15 11 8 8 9 9 10 11 12 11 11 11 11 11 11 12 14 16 18 18 18 19 18 17 16 15 14 14 15 15 15 16 16 18 18 18 17 16 13 11 10 10 10 10 9 9 9 10 12 14 14 14 15 16
6 6 5 4 5 8 6 6 8 9 7 4 3 2 3 6 7 12 13 11 10 10 13 16 16 16 16 14 14 15 17 16 13 9 8 9 9 10 11 11 11 10 10 9 10 10 11 12 14 16 17 17 18 18 18 17 16 15 14 15 15 16 16 17 18 18 18 17 16 15 12 11 11 11 11 10 10 10 10 11 13 15 16 15 15 16
6 6 4 4 4 5 5 5 7 6 8 12 8 2 2 1 2 5 8 8 9 12 15 16 15 14 13 14 15 15 14 11 7 5 8 11 12 11 10 10 10 10 9 9 9 10 12 14 16 17 17 18 19 19 18 17 17 16 16 16 17 17 18 18 18 17 17 17 16 14 13 12 12 11 11 11 10 11 12 13 15 17 17 16 16 15
5 6 5 5 5 5 6 8 9 10 14 12 6 2 4 4 5 5 7 10 10 11 12 12 13 15 16 17 18 15 9 6 8 8 9 12 11 8 9 9 9 9 7 7 8 10 12 14 16 17 18 19 19 19 18 17 18 18 18 18 18 18 18 17 17 17 16 15 15 14 13 13 12 13 13 12 12 14 15 16 18 18 17 16 16 16
5 6 6 6 6 5 7 8 7 9 8 3 4 4 4 4 5 5 7 8 6 10 12 14 16 18 18 18 19 15 8 7 11 11 5 4 5 4 6 8 6 5 5 7 9 11 12 14 16 18 21 21 19 18 19 19 20 19 19 19 19 18 17 16 16 15 15 14 14 14 13 13 14 15 16 15 16 17 17 18 18 17 16 16 17 17
5 5 5 6 7 6 6 6 5 6 3 5 5 2 2 3 4 5 7 5 8 16 18 17 18 19 17 18 18 15 10 10 12 10 4 1 2 3 6 6 5 4 6 8 11 13 14 15 17 19 21 21 19 18 20 20 20 19 18 18 18 17 16 16 16 15 14 14 13 13 14 15 16 17 17 17 18 18 18 18 18 18 17 16 16 18
5 5 5 7 9 7 7 7 6 5 4 10 9 5 3 2 4 6 7 4 12 21 21 19 20 20 17 17 15 12 10 11 12 9 4 2 1 2 4 6 5 6 7 8 11 14 16 18 20 20 20 20 20 20 20 20 19 18 18 16 16 15 16 17 17 14 13 13 13 14 15 16 17 18 18 18 18 18 18 18 19 19 18 17 16 16
4 5 7 9 9 8 9 8 6 5 4 12 14 9 6 4 4 5 7 9 16 21 20 19 20 19 18 16 13 10 11 13 15 12 4 1 3 3 4 5 5 6 7 8 12 15 16 18 21 21 20 20 21 20 20 20 18 17 16 15 15 16 18 17 15 13 12 12 13 15 16 16 17 18 18 18 18 18 18 19 20 20 19 18 18 18
4 4 5 8 8 7 7 8 8 6 3 11 13 10 7 6 5 6 10 14 17 19 19 19 19 18 17 17 14 13 15 17 19 17 9 5 6 5 4 5 5 6 7 8 12 15 15 15 18 19 18 19 21 21 21 20 18 16 16 16 16 18 17 16 15 14 13 13 13 15 16 16 17 17 17 17 18 18 19 20 20 20 20 20 20 20
3 4 3 4 5 4 4 4 5 4 5 15 15 10 7 7 8 10 13 15 16 18 18 17 17 16 16 17 17 19 20 20 20 19 15 9 7 6 6 7 8 7 8 10 12 15 16 16 15 16 17 19 20 21 22 21 19 17 17 18 18 18 16 16 16 15 13 14 14 15 16 16 17 17 17 18 19 19 20 22 20 18 19 21 22 22
3 1 3 2 0 1 3 3 3 5 6 12 12 7 6 9 10 11 13 13 15 16 15 14 15 17 17 17 19 21 21 21 19 19 17 10 6 6 6 8 8 9 10 11 12 16 19 17 15 14 16 19 20 21 22 22 20 18 19 19 18 16 16 16 15 14 14 15 15 16 16 17 17 17 18 20 20 19 21 22 21 20 20 21 20 18
6 7 6 5 3 5 5 4 6 8 8 10 9 7 9 11 12 13 14 13 13 13 13 13 15 18 19 19 20 19 19 19 18 18 18 11 6 7 7 9 9 10 11 11 12 16 20 19 16 15 15 16 19 21 22 22 21 20 20 19 16 16 16 15 14 15 15 15 16 16 17 18 18 19 20 20 19 18 20 20 19 19 19 17 16 16
8 10 8 5 6 9 6 5 8 10 11 14 13 11 10 11 13 14 14 14 13 14 14 14 15 18 19 20 19 17 17 19 18 18 18 13 7 7 7 8 9 10 11 11 12 16 17 15 14 14 13 14 18 20 21 22 22 21 20 18 16 16 16 15 15 16 16 16 17 18 18 19 19 19 20 21 20 18 18 17 16 16 16 15 15 16
9 11 9 6 8 9 6 7 12 13 15 17 15 12 12 14 16 16 14 14 15 16 16 17 17 18 19 19 18 17 19 21 19 18 17 12 7 6 6 6 7 10 11 11 14 17 16 12 12 13 13 13 16 20 21 21 22 21 20 18 17 17 16 16 16 16 17 18 18 18 18 19 21 20 19 20 19 17 16 15 15 16 16 15 15 15
9 10 9 8 9 8 8 9 14 16 17 15 10 9 13 17 20 21 18 16 16 17 18 19 19 18 17 17 18 19 20 21 19 17 16 13 8 4 4 5 6 8 9 10 14 17 15 12 12 13 13 13 15 19 21 21 21 21 20 19 19 18 17 16 16 17 17 17 18 18 17 16 18 19 18 18 17 16 16 16 17 17 18 19 18 17
7 7 8 9 9 8 8 11 16 16 16 12 11 14 16 17 20 23 23 21 21 21 21 22 21 19 18 18 19 19 21 22 19 16 16 15 10 5 3 4 5 7 9 10 14 17 15 13 13 14 14 14 15 17 19 20 20 21 20 20 20 19 18 17 17 17 18 18 17 17 15 13 14 16 17 17 16 16 17 18 18 19 20 22 24 24
6 7 8 9 8 7 9 14 16 13 12 13 19 23 22 20 20 22 23 23 24 24 23 24 24 24 23 22 20 18 19 21 20 17 15 14 10 5 3 4 5 7 8 9 12 13 13 13 15 15 15 15 14 16 18 18 19 19 20 20 20 19 19 18 17 16 17 18 18 16 14 14 14 14 14 15 15 16 17 18 19 21 23 25 26 26
7 8 9 8 8 10 13 16 14 11 10 15 21 25 23 21 20 22 23 23 24 23 23 23 24 25 25 26 25 22 18 19 20 17 15 13 9 5 4 5 6 6 8 9 10 10 10 11 14 15 15 14 14 15 16 16 17 18 19 20 20 19 19 19 17 14 13 14 15 15 14 14 14 13 14 14 14 15 16 17 18 20 22 25 26 26
Wind_Direction
269 238 201 357 45 46 26 19 357 345 336 323 305 288 284 281 284 92 102 98 59 294 262 256 265 268 269 267 252 206 187 201 213 214 218 216 213 211 210 211 212 215 219 211 206 200 195 197 199 201 204 205 209 212 213 216 218 219 220 222 223 224 220 217 217 221 224 226 230 232 236 241 245 246 242 242 249 253 253 250 256 267 273 275 273 274
251 252 74 45 32 36 18 5 337 324 321 299 282 284 274 268 287 83 111 121 120 278 272 272 273 270 268 265 261 231 193 199 210 211 216 215 213 214 212 212 211 213 211 199 192 190 192 197 199 200 203 206 209 212 214 215 217 218 219 221 223 222 218 216 219 221 224 227 232 237 244 249 254 253 249 250 251 252 251 243 248 263 272 274 273 274
215 152 81 59 36 40 21 351 314 300 288 277 267 277 279 302 316 293 126 134 181 246 276 288 286 277 272 264 259 239 206 203 208 209 214 214 213 214 212 211 209 209 203 194 191 192 196 197 195 197 201 206 210 212 214 214 215 217 218 220 221 220 218 219 222 224 229 233 237 244 248 252 256 256 254 257 257 255 256 254 256 267 273 272 270 271
201 90 82 61 17 301 339 23 300 277 255 264 279 279 293 8 337 275 122 108 243 241 281 302 295 279 271 260 256 240 214 210 214 214 215 214 216 215 213 210 206 206 203 198 198 197 197 195 192 196 201 203 206 209 211 210 210 212 214 215 214 216 218 220 224 230 238 244 246 248 252 256 260 263 263 264 264 262 263 265 264 264 266 265 260 261
80 69 57 49 300 318 322 275 278 278 253 203 271 303 317 354 327 291 321 316 270 235 251 289 286 274 261 242 243 226 206 218 221 216 214 212 217 217 215 213 208 208 205 202 201 198 197 194 192 195 198 197 199 205 207 206 206 208 210 212 212 216 220 223 227 232 240 246 249 251 256 260 262 263 261 260 261 260 258 259 257 252 249 248 249 252
80 58 23 207 221 317 303 276 314 303 280 204 143 353 337 330 315 297 306 309 288 242 196 269 299 293 197 221 228 175 186 220 216 213 214 208 210 213 214 213 209 209 210 208 207 204 199 193 190 190 190 190 196 202 205 204 204 205 207 210 213 216 220 224 225 226 229 233 236 239 244 249 253 256 251 249 257 259 255 254 254 249 239 237 243 247
86 88 314 254 242 264 266 265 77 328 283 264 66 14 342 303 296 291 297 291 291 305 190 191 286 290 273 269 249 179 190 218 209 212 218 211 208 210 211 211 209 209 210 210 210 208 198 188 184 183 183 187 194 195 192 192 196 199 200 201 204 207 211 215 215 215 218 222 226 231 237 245 254 261 262 266 274 275 272 271 266 259 252 248 247 244
111 141 187 221 233 236 242 240 101 327 279 298 26 321 284 272 275 282 289 268 277 311 264 191 237 279 279 276 237 172 199 222 214 217 218 215 213 212 212 210 210 210 208 206 205 202 193 186 185 185 184 183 181 177 172 175 185 190 190 187 189 191 193 197 198 202 208 214 221 227 237 247 254 261 268 274 277 276 274 273 270 265 262 258 252 246
161 176 180 198 221 230 218 104 83 355 272 37 59 262 259 264 270 271 275 270 278 310 284 202 188 267 277 268 165 161 220 235 227 222 216 215 215 215 215 211 210 211 209 205 198 194 191 189 187 181 171 162 157 160 164 166 168 170 172 172 173 175 176 181 185 192 201 209 218 227 238 248 254 260 267 271 273 273 272 271 268 265 264 260 255 250
189 124 117 237 236 226 104 93 76 311 289 52 159 245 248 247 255 250 253 274 282 280 275 207 158 268 287 284 202 176 228 239 228 221 214 214 215 215 217 214 212 210 205 197 183 176 176 173 168 158 148 144 147 153 156 155 156 157 158 160 160 159 161 167 175 185 195 205 215 228 238 248 257 263 268 270 270 269 269 269 267 265 265 264 261 257
121 67 2 258 262 70 97 99 71 334 312 7 223 247 247 230 233 241 243 266 272 260 256 123 128 265 292 290 256 185 213 220 209 208 203 206 211 212 216 216 210 199 182 170 159 151 148 145 144 142 140 142 145 149 150 150 152 152 151 151 148 145 145 145 148 159 171 187 207 223 236 247 258 264 267 269 270 270 270 270 270 270 269 267 265 263
154 186 186 163 142 110 135 157 146 194 239 243 252 274 278 243 222 233 222 210 248 264 110 103 110 245 253 272 272 157 161 195 201 207 199 197 203 204 203 201 192 179 165 158 152 144 139 138 143 144 143 144 146 149 149 149 148 147 146 146 141 137 136 134 134 140 149 166 190 217 240 252 259 264 267 270 273 274 274 273 273 273 272 271 268 266
184 186 141 118 148 200 205 201 173 184 202 231 252 267 284 281 258 251 241 233 257 267 113 115 28 259 248 258 263 257 237 210 203 212 210 202 196 192 185 178 170 165 163 159 154 149 147 149 150 150 149 149 152 154 150 147 145 143 146 147 143 138 136 136 140 144 148 167 192 221 246 259 267 271 272 275 276 276 275 275 275 274 274 272 270 267
199 142 147 156 175 196 212 228 219 189 187 210 246 270 280 296 300 281 279 278 278 301 122 133 22 276 265 268 262 256 245 220 202 196 208 206 193 183 170 162 154 156 161 158 153 151 153 154 153 154 154 154 156 155 150 147 147 146 148 150 143 139 143 146 150 154 159 175 197 220 244 263 275 278 277 277 276 276 277 276 276 275 274 273 271 269
275 257 166 172 131 164 201 237 336 342 232 208 286 309 279 282 282 280 295 291 290 310 286 163 179 264 273 300 230 240 246 212 200 178 172 192 178 158 150 151 153 161 161 153 150 151 153 154 155 157 157 157 157 155 151 150 151 151 151 151 146 145 151 153 154 161 166 177 188 194 226 265 280 281 280 277 276 278 279 280 280 277 274 273 271 269
260 266 106 90 86 160 191 198 38 301 263 190 96 264 257 276 273 272 292 292 296 306 280 214 229 253 268 281 224 156 134 167 179 164 164 180 165 147 155 164 166 170 163 154 153 152 154 156 157 159 159 159 158 156 154 153 156 156 151 150 152 153 155 155 159 167 167 170 171 162 172 289 297 287 283 277 279 287 290 287 282 277 274 271 270 268
266 256 115 118 137 157 177 58 182 278 289 148 183 232 243 18 303 279 269 243 255 276 261 229 248 259 277 284 239 156 180 195 186 187 189 192 184 174 182 183 177 176 166 162 162 159 159 161 162 163 162 161 160 158 156 155 156 155 152 154 157 157 160 162 166 170 166 166 166 160 151 130 248 271 283 286 293 300 297 291 285 280 277 273 270 267
299 278 158 166 172 132 31 332 242 257 274 236 235 299 26 242 279 270 264 277 264 266 267 248 256 266 274 285 183 148 199 214 209 211 207 204 201 199 200 191 178 168 162 164 168 166 166 167 167 167 165 163 161 157 154 153 153 153 155 161 163 163 166 168 170 169 168 168 167 172 172 169 187 209 258 286 304 308 301 299 297 292 287 285 280 270
297 282 183 151 135 134 151 254 240 214 216 262 301 340 305 263 239 213 240 288 281 274 281 264 258 260 247 248 251 221 208 209 213 210 208 211 208 209 205 186 168 160 163 172 175 174 173 173 172 169 165 162 158 155 154 153 154 156 160 163 164 168 170 171 171 168 169 173 174 180 186 182 184 197 233 274 307 315 312 314 313 311 302 299 300 278
229 264 260 111 114 140 176 221 226 196 179 232 287 255 228 278 273 256 257 293 277 277 287 277 256 248 245 242 245 240 220 211 213 202 209 217 209 207 201 179 168 168 175 180 180 179 177 176 174 169 164 161 158 157 157 159 161 162 163 164 167 171 171 171 170 170 175 179 178 182 186 187 189 198 208 224 266 291 341 337 331 335 329 321 311 282
194 219 266 168 141 195 209 202 216 211 172 174 211 212 195 181 240 272 265 242 252 267 278 280 270 262 259 236 229 237 222 211 218 217 222 221 209 207 202 186 178 178 182 183 180 180 178 175 174 169 164 162 161 162 163 165 166 165 166 169 173 174 173 174 174 178 182 184 185 187 190 196 198 202 206 211 220 215 323 332 349 344 339 14 358 243
209 220 259 247 225 238 226 179 300 306 198 191 204 203 201 187 179 251 253 215 218 253 267 280 283 276 258 195 231 252 234 219 226 228 230 221 208 209 206 197 189 184 186 184 180 178 175 174 172 168 167 166 168 169 170 170 168 169 172 174 177 179 179 179 179 182 186 188 189 190 194 202 203 205 211 215 215 209 217 254 336 293 221 155 15 239
327 270 262 261 258 250 140 78 45 13 351 280 249 228 215 197 196 230 252 232 202 238 282 299 281 278 254 172 215 243 228 225 228 228 238 228 213 213 206 197 190 188 188 182 179 177 175 174 172 170 172 173 175 176 174 174 172 174 178 178 180 183 181 181 183 185 187 190 192 194 198 203 203 207 215 220 219 211 212 238 271 267 231 199 279 257
211 249 247 267 268 230 114 102 88 37 337 262 245 226 220 213 205 227 263 320 258 240 247 264 263 270 278 124 188 202 175 225 223 224 241 234 222 216 205 194 188 189 187 180 179 178 175 174 173 174 178 179 181 181 178 178 178 178 180 180 183 185 182 182 183 185 188 191 194 196 198 199 199 204 211 213 212 207 226 247 251 254 253 252 259 256
192 231 231 275 285 260 196 193 177 167 204 230 239 215 209 201 120 39 294 261 264 247 233 245 264 265 272 90 142 179 196 236 231 220 230 232 228 213 200 196 191 188 187 182 183 180 176 178 179 180 184 184 184 183 181 182 181 180 181 181 183 184 183 183 182 186 191 195 197 197 199 201 201 205 212 211 209 219 241 251 249 249 257 260 257 255
226 251 233 248 274 270 265 271 277 207 193 211 224 205 203 187 154 178 243 235 245 239 214 219 249 261 262 142 164 202 215 233 238 227 219 226 231 215 199 197 192 190 190 186 185 184 182 184 185 185 186 185 185 183 182 183 182 181 182 182 182 183 182 183 183 187 193 198 199 198 199 203 205 208 208 203 209 231 247 254 256 258 260 258 256 256
257 262 239 238 249 253 262 278 354 76 242 244 223 192 191 191 187 198 230 237 237 236 227 229 237 260 275 269 259 263 256 250 251 240 223 218 220 216 208 201 195 194 194 189 187 186 186 188 190 189 188 186 185 183 182 182 181 181 181 181 182 182 182 185 185 188 195 200 200 197 200 208 209 205 200 208 231 250 262 266 262 255 254 255 258 259
251 260 237 233 244 250 261 274 282 268 263 267 261 224 198 189 190 199 219 232 236 248 256 249 238 249 268 273 278 286 284 281 282 274 260 242 223 214 209 204 201 199 195 192 191 190 191 192 191 191 189 186 183 181 181 181 181 181 181 181 181 182 183 186 188 190 196 202 202 201 205 208 202 199 214 238 258 267 272 265 250 247 250 256 260 259
246 264 238 221 248 256 260 269 274 272 268 268 266 256 233 201 188 199 222 231 229 233 252 263 267 263 267 277 283 286 287 290 292 290 284 270 253 236 220 209 204 204 201 198 197 195 195 194 191 189 188 185 182 180 179 180 180 180 180 180 181 182 185 188 192 194 197 201 204 206 206 203 201 216 242 263 271 269 257 244 242 248 251 256 259 257
236 262 236 186 263 270 266 263 262 260 263 264 261 258 251 232 212 209 227 235 234 241 253 264 272 271 271 277 281 284 288 291 291 287 275 263 262 260 246 228 214 208 206 203 202 200 196 194 191 187 184 184 182 180 180 180 180 181 181 181 182 184 189 192 194 197 200 202 206 207 206 209 220 243 262 268 262 249 237 238 244 248 252 258 258 255
216 241 107 109 282 279 272 263 249 247 255 264 265 260 251 245 237 228 233 238 238 245 253 258 265 271 272 272 274 279 282 281 278 272 264 259 260 260 254 244 231 222 214 207 203 200 196 193 189 184 184 185 184 182 181 180 179 181 181 182 184 187 192 193 195 200 203 204 207 208 212 224 243 258 261 253 243 236 237 242 247 252 259 262 259 259
202 236 64 130 272 278 278 258 245 257 262 261 263 259 246 237 235 230 230 230 226 233 248 256 258 263 268 273 279 283 285 287 283 274 267 265 260 249 243 241 238 235 227 215 205 196 192 190 187 185 185 184 182 181 181 179 178 180 183 185 186 189 193 193 195 199 201 205 210 215 225 239 249 250 245 238 234 235 240 247 253 260 265 265 262 263
196 234 249 206 259 273 277 76 315 304 287 265 258 257 248 234 226 224 226 225 220 221 240 253 250 259 274 288 296 299 303 304 301 293 279 274 271 258 243 238 239 240 235 225 208 194 191 190 188 186 184 181 180 180 179 177 177 180 183 185 186 187 190 192 195 200 206 212 218 226 236 241 238 234 234 233 234 239 243 248 256 262 266 266 266 267
196 219 247 241 256 270 289 6 330 296 270 261 246 71 287 276 251 242 243 241 231 220 226 245 258 274 284 292 297 302 304 302 299 295 281 271 273 270 258 250 246 243 238 225 207 194 189 186 185 182 179 178 176 174 175 176 177 179 181 183 183 184 188 194 201 208 214 219 226 232 235 231 227 229 231 232 236 241 244 249 258 264 267 269 270 273
180 200 237 238 251 274 298 329 300 265 252 287 357 29 305 296 281 269 269 270 265 251 247 254 262 271 279 288 295 296 294 296 297 291 276 268 266 263 263 262 254 242 230 215 201 192 184 178 176 173 172 172 168 167 170 174 173 173 176 179 181 184 192 200 207 214 220 224 229 230 225 222 223 226 230 234 236 240 245 251 259 267 270 271 272 273
178 187 220 236 242 266 277 253 243 267 317 316 309 357 64 35 344 303 285 282 281 271 265 268 274 282 294 301 301 298 297 300 299 273 252 253 254 248 247 256 257 245 226 206 193 184 177 173 171 167 164 163 162 164 168 170 172 173 176 182 187 193 200 206 211 217 223 226 227 223 218 218 221 225 230 233 236 244 251 255 261 268 271 271 270 268
194 192 211 237 230 236 255 252 257 291 311 307 300 52 51 33 39 17 315 300 303 295 293 303 311 316 320 316 312 313 315 305 291 275 248 240 241 238 237 249 260 253 227 193 175 169 165 164 162 160 160 160 162 166 167 169 176 180 183 188 195 201 205 210 215 220 222 223 223 219 216 216 220 228 235 239 245 253 258 261 266 269 269 268 267 265
218 217 217 229 230 232 252 265 278 286 294 352 59 60 35 20 27 4 300 295 346 1 351 342 331 324 322 320 317 316 309 293 293 297 290 239 227 231 238 243 248 236 188 154 147 144 145 150 154 160 167 166 164 169 173 176 182 186 189 195 200 204 206 209 216 218 217 219 220 218 218 221 228 236 243 247 252 257 261 264 266 266 266 266 265 266
230 247 238 245 252 241 238 252 264 263 281 48 55 58 44 15 346 318 280 273 11 4 352 343 333 325 322 320 319 315 305 296 294 301 339 51 217 233 234 226 205 182 164 151 148 146 145 152 157 163 170 169 167 173 180 184 188 190 193 199 202 204 205 210 215 215 215 217 217 217 222 229 236 242 247 252 255 259 260 261 262 264 264 262 263 267
213 231 221 233 247 242 240 253 259 259 318 10 13 14 21 329 301 298 278 302 356 347 341 339 330 323 320 317 316 313 301 296 299 310 358 40 291 249 224 220 201 181 164 146 149 156 157 161 163 164 169 172 173 178 183 188 191 194 197 199 199 201 208 214 216 215 215 216 216 219 226 234 241 245 249 253 256 257 257 258 262 265 265 262 261 264
189 208 217 228 241 244 239 245 264 274 338 7 1 355 347 305 277 288 300 333 343 333 329 329 321 315 317 313 310 307 299 298 303 309 321 276 265 243 208 213 197 176 162 150 158 163 162 167 173 172 174 177 178 181 187 190 191 193 195 194 198 207 214 217 216 213 211 212 219 227 232 238 244 249 252 255 255 255 256 260 264 266 265 264 264 264
179 194 218 225 232 244 242 248 272 281 32 28 1 344 351 337 306 314 327 328 326 322 321 321 316 315 318 314 308 304 301 299 301 301 293 259 249 235 196 182 172 162 153 154 166 168 164 168 175 175 176 180 182 186 191 192 191 194 195 197 207 215 217 217 219 219 216 215 221 231 237 241 245 248 251 253 253 255 258 262 266 266 266 266 265 266
178 193 217 212 211 231 236 237 269 285 23 25 6 350 2 350 321 320 324 319 318 320 320 317 316 320 321 317 313 310 306 303 302 300 295 273 240 227 203 187 184 178 164 163 172 177 174 172 172 174 177 181 187 191 193 194 195 198 200 208 217 219 217 220 224 225 223 221 225 233 238 241 244 244 247 251 254 257 261 263 263 263 264 267 268 268
57 18 301 287 130 299 247 240 335 339 4 19 12 346 329 328 322 326 326 321 321 322 319 318 317 318 321 320 315 312 308 305 303 302 300 283 235 219 212 196 193 189 181 179 180 181 181 178 171 172 179 184 189 194 197 199 200 202 209 218 222 220 219 224 226 224 223 225 230 235 237 240 244 246 250 254 256 256 258 261 262 261 262 264 264 262
47 16 321 288 337 345 287 272 342 349 350 2 358 328 320 327 331 333 328 320 316 316 317 318 315 316 320 319 313 308 305 304 304 304 301 289 242 219 211 199 197 192 184 182 182 183 187 185 176 171 175 185 193 197 201 205 205 208 217 223 222 221 223 227 225 224 226 229 233 238 241 244 249 251 252 253 251 251 254 258 260 260 259 256 251 248
29 10 340 306 337 340 307 301 347 351 344 340 330 318 326 335 332 330 325 318 314 313 313 314 313 314 315 312 308 305 301 301 302 301 298 290 257 225 212 200 197 190 180 176 179 184 186 181 176 172 172 183 196 201 206 210 212 217 224 225 223 225 229 230 228 228 231 233 237 242 246 249 253 253 252 252 250 250 253 253 251 252 252 247 244 245
5 4 356 341 343 336 313 328 350 345 329 322 317 316 330 332 325 322 319 313 311 311 312 313 312 310 308 306 305 303 300 300 301 299 297 290 262 224 212 203 193 187 184 182 184 185 181 172 175 179 177 182 196 204 210 214 218 224 228 227 227 230 232 233 233 232 234 236 241 246 250 253 254 252 251 252 252 250 249 246 243 244 245 242 241 243
339 347 350 339 328 312 295 319 338 328 311 308 315 328 332 329 324 320 317 313 310 310 310 311 311 310 309 308 308 307 303 300 298 298 297 291 276 237 208 203 194 185 184 185 187 186 181 175 180 183 182 186 196 205 212 216 221 226 228 228 229 232 233 235 235 234 235 239 244 247 250 252 252 250 247 247 246 244 244 242 239 237 239 242 245 245
317 324 338 331 316 302 304 326 335 325 309 310 327 332 329 328 324 320 319 319 317 315 314 312 311 310 309 308 310 310 306 300 298 299 298 293 286 265 210 194 193 185 179 183 189 189 187 188 189 189 192 197 199 206 213 218 223 228 229 230 231 232 233 235 236 237 239 242 246 247 246 245 246 246 245 246 245 245 246 244 240 239 244 251 255 258
339 341 345 336 323 321 327 331 333 328 316 319 326 326 326 327 324 320 320 321 319 318 317 314 312 311 309 308 309 309 304 301 301 300 297 293 287 266 211 187 183 180 177 183 190 191 193 200 202 202 204 206 205 209 214 219 225 229 232 233 233 233 234 233 234 238 242 243 245 245 241 239 241 240 240 244 248 251 253 251 246 245 250 257 264 268
357 351 342 332 322 319 319 322 325 323 313 314 317 319 322 325 325 322 322 321 319 318 318 316 313 312 311 309 309 309 304 301 302 302 297 292 285 265 225 203 186 177 179 182 182 183 191 202 208 211 213 211 210 213 217 222 228 233 236 237 235 234 234 232 230 233 238 239 241 242 238 237 239 238 240 247 251 252 258 263 260 254 254 258 263 266